H1 CPF 2 NER 2022 1 7 9 007 01 glonass121 H2 1000702 9121 36401 2022 1 7 0 0 0 2022 1 10 23 45 0 900 1 1 0 0 0 1 H9 10 0 59586 0.00000 0 10633729.513 1639062.076 23127761.531 10 0 59586 900.00000 0 11145679.640 4414433.385 22523614.888 10 0 59586 1800.00000 0 11844233.233 7043481.700 21482425.112 10 0 59586 2700.00000 0 12695701.305 9464232.814 20024728.164 10 0 59586 3600.00000 0 13656496.624 11623009.485 18179080.097 10 0 59586 4500.00000 0 14675012.558 13476400.695 15981485.188 10 0 59586 5400.00000 0 15693849.891 14992803.225 13474686.060 10 0 59586 6300.00000 0 16652297.942 16153474.829 10707330.071 10 0 59586 7200.00000 0 17488966.215 16953058.469 7733028.259 10 0 59586 8100.00000 0 18144457.189 17399558.870 4609324.712 10 0 59586 9000.00000 0 18563969.483 17513774.923 1396595.465 10 0 59586 9900.00000 0 18699723.798 17328213.450 -1843102.742 10 0 59586 10800.00000 0 18513111.461 16885530.905 -5047213.009 10 0 59586 11700.00000 0 17976476.774 16236568.480 -8153866.858 10 0 59586 12600.00000 0 17074459.329 15438062.478 -11103059.452 10 0 59586 13500.00000 0 15804840.223 14550124.890 -13837790.453 10 0 59586 14400.00000 0 14178856.171 13633598.343 -16305150.092 10 0 59586 15300.00000 0 12220966.992 12747394.764 -18457330.837 10 0 59586 16200.00000 0 9968084.038 11945927.840 -20252546.288 10 0 59586 17100.00000 0 7468288.877 11276745.772 -21655840.389 10 0 59586 18000.00000 0 4779092.456 10778463.009 -22639771.571 10 0 59586 18900.00000 0 1965303.727 10479077.714 -23184958.477 10 0 59586 19800.00000 0 -903407.016 10394746.418 -23280475.973 10 0 59586 20700.00000 0 -3755151.679 10529068.795 -22924092.447 10 0 59586 21600.00000 0 -6518567.342 10872914.829 -22122342.064 10 0 59586 22500.00000 0 -9125546.226 11404804.223 -20890428.324 10 0 59586 23400.00000 0 -11513839.646 12091824.897 -19251958.411 10 0 59586 24300.00000 0 -13629427.364 12891054.552 -17238510.973 10 0 59586 25200.00000 0 -15428552.507 13751427.580 -14889043.403 10 0 59586 26100.00000 0 -16879335.408 14615970.011 -12249148.267 10 0 59586 27000.00000 0 -17962896.989 15424308.637 -9370171.996 10 0 59586 27900.00000 0 -18673942.763 16115347.760 -6308212.369 10 0 59586 28800.00000 0 -19020781.369 16629998.806 -3123014.643 10 0 59586 29700.00000 0 -19024776.099 16913844.977 123211.130 10 0 59586 30600.00000 0 -18719252.510 16919625.202 3367026.780 10 0 59586 31500.00000 0 -18147909.174 16609429.124 6545030.118 10 0 59586 32400.00000 0 -17362800.518 15956507.235 9595119.164 10 0 59586 33300.00000 0 -16421979.551 14946617.061 12457729.118 10 0 59586 34200.00000 0 -15386903.064 13578846.752 15077015.329 10 0 59586 35100.00000 0 -14319712.068 11865880.380 17401957.182 10 0 59586 36000.00000 0 -13280505.104 9833693.707 19387359.958 10 0 59586 36900.00000 0 -12324721.794 7520694.017 20994734.438 10 0 59586 37800.00000 0 -11500748.317 4976341.435 22193037.288 10 0 59586 38700.00000 0 -10847846.096 2259311.104 22959258.700 10 0 59586 39600.00000 0 -10394490.287 -564725.193 23278847.332 10 0 59586 40500.00000 0 -10157186.362 -3425604.051 23145966.295 10 0 59586 41400.00000 0 -10139812.254 -6251356.882 22563577.453 10 0 59586 42300.00000 0 -10333510.966 -8970965.763 21543354.687 10 0 59586 43200.00000 0 -10717135.216 -11517074.834 20105430.069 10 0 59586 44100.00000 0 -11258222.719 -13828546.075 18277979.736 10 0 59586 45000.00000 0 -11914458.805 -15852755.401 16096659.095 10 0 59586 45900.00000 0 -12635563.247 -17547536.478 13603899.396 10 0 59586 46800.00000 0 -13365521.074 -18882694.553 10848079.833 10 0 59586 47700.00000 0 -14045063.440 -19841030.464 7882591.419 10 0 59586 48600.00000 0 -14614294.818 -20418835.258 4764810.350 10 0 59586 49500.00000 0 -15015357.179 -20625837.467 1554999.949 10 0 59586 50400.00000 0 -15195020.616 -20484607.243 -1684838.544 10 0 59586 51300.00000 0 -15107093.160 -20029443.663 -4892145.546 10 0 59586 52200.00000 0 -14714549.952 -19304792.265 -8004991.789 10 0 59586 53100.00000 0 -13991293.525 -18363258.840 -10963254.665 10 0 59586 54000.00000 0 -12923471.801 -17263301.786 -13709761.235 10 0 59586 54900.00000 0 -11510298.345 -16066698.259 -16191377.441 10 0 59586 55800.00000 0 -9764339.495 -14835888.580 -18360023.825 10 0 59586 56700.00000 0 -7711254.461 -13631308.388 -20173599.374 10 0 59586 57600.00000 0 -5388996.625 -12508818.670 -21596796.452 10 0 59586 58500.00000 0 -2846506.166 -11517340.186 -22601791.384 10 0 59586 59400.00000 0 -141944.931 -10696790.776 -23168797.251 10 0 59586 60300.00000 0 2659456.657 -10076412.065 -23286467.474 10 0 59586 61200.00000 0 5487854.376 -9673556.614 -22952141.097 10 0 59586 62100.00000 0 8271447.542 -9492987.867 -22171923.265 10 0 59586 63000.00000 0 10939230.500 -9526724.387 -20960597.150 10 0 59586 63900.00000 0 13423724.936 -9754437.303 -19341366.580 10 0 59586 64800.00000 0 15663579.501 -10144386.681 -17345431.919 10 0 59586 65700.00000 0 17605927.688 -10654859.509 -15011405.040 10 0 59586 66600.00000 0 19208403.992 -11236050.268 -12384572.876 10 0 59586 67500.00000 0 20440732.153 -11832305.433 -9516022.520 10 0 59586 68400.00000 0 21285816.829 -12384636.880 -6461644.205 10 0 59586 69300.00000 0 21740290.904 -12833396.691 -3281031.900 10 0 59586 70200.00000 0 21814494.052 -13120998.032 -36303.912 10 0 59586 71100.00000 0 21531882.798 -13194564.145 3209131.773 10 0 59586 72000.00000 0 20927897.189 -13008390.056 6391840.914 10 0 59586 72900.00000 0 20048333.141 -12526109.595 9449627.929 10 0 59586 73800.00000 0 18947291.209 -11722473.069 12322774.894 10 0 59586 74700.00000 0 17684791.064 -10584658.142 14955227.823 10 0 59586 75600.00000 0 16324155.346 -9113057.052 17295705.052 10 0 59586 76500.00000 0 14929276.165 -7321506.299 19298704.650 10 0 59586 77400.00000 0 13561882.008 -5236949.404 20925390.453 10 0 59586 78300.00000 0 12278921.929 -2898547.830 22144339.615 10 0 59586 79200.00000 0 11130177.910 -356278.721 22932137.958 10 0 59586 80100.00000 0 10156205.578 2330920.202 23273812.999 10 0 59586 81000.00000 0 9386688.527 5097379.615 23163098.233 10 0 59586 81900.00000 0 8839273.161 7873207.363 22602525.765 10 0 59586 82800.00000 0 8518930.199 10586971.939 21603347.832 10 0 59586 83700.00000 0 8417866.431 13168449.211 20185290.957 10 0 59586 84600.00000 0 8515987.233 15551319.184 18376149.437 10 0 59586 85500.00000 0 8781887.492 17675702.283 16211227.663 10 0 59587 0.00000 0 9174326.872 19490431.953 13732643.399 10 0 59587 900.00000 0 9644125.974 20954972.712 10988504.729 10 0 59587 1800.00000 0 10136402.249 22040904.393 8031980.201 10 0 59587 2700.00000 0 10593052.238 22732916.973 4920275.366 10 0 59587 3600.00000 0 10955375.842 23029274.655 1713538.029 10 0 59587 4500.00000 0 11166733.542 22941733.044 -1526288.884 10 0 59587 5400.00000 0 11175126.193 22494914.251 -4736645.841 10 0 59587 6300.00000 0 10935590.414 21725166.820 -7855545.370 10 0 59587 7200.00000 0 10412310.120 20678958.183 -10822749.466 10 0 59587 8100.00000 0 9580356.373 19410866.164 -13580914.696 10 0 59587 9000.00000 0 8426982.637 17981252.263 -16076684.532 10 0 59587 9900.00000 0 6952420.560 16453712.345 -18261709.132 10 0 59587 10800.00000 0 5170141.455 14892409.439 -20093574.146 10 0 59587 11700.00000 0 3106570.215 13359398.313 -21536621.403 10 0 59587 12600.00000 0 800260.651 11912052.131 -22562645.965 10 0 59587 13500.00000 0 -1699436.864 10600697.669 -23151455.988 10 0 59587 14400.00000 0 -4334163.713 9466557.475 -23291283.859 10 0 59587 15300.00000 0 -7038726.426 8540085.340 -22979039.414 10 0 59587 16200.00000 0 -9743568.024 7839765.634 -22220398.589 10 0 59587 17100.00000 0 -12377437.117 7371428.340 -21029723.649 10 0 59587 18000.00000 0 -14870145.298 7128110.503 -19429814.083 10 0 59587 18900.00000 0 -17155298.781 7090471.997 -17451490.577 10 0 59587 19800.00000 0 -19172890.106 7227750.169 -15133017.714 10 0 59587 20700.00000 0 -20871640.434 7499214.780 -12519374.731 10 0 59587 21600.00000 0 -22210992.679 7856062.820 -9661387.087 10 0 59587 22500.00000 0 -23162669.722 8243673.268 -6614735.025 10 0 59587 23400.00000 0 -23711729.977 8604125.607 -3438858.691 10 0 59587 24300.00000 0 -23857074.035 8878873.705 -195782.055 10 0 59587 25200.00000 0 -23611379.722 9011459.266 3051119.700 10 0 59587 26100.00000 0 -23000467.822 8950146.796 6238382.912 10 0 59587 27000.00000 0 -22062125.738 8650365.169 9303721.019 10 0 59587 27900.00000 0 -20844440.128 8076849.212 12187265.560 10 0 59587 28800.00000 0 -19403711.096 7205388.000 14832755.726 10 0 59587 29700.00000 0 -17802038.606 6024103.954 17188651.181 10 0 59587 30600.00000 0 -16104685.687 4534207.563 19209144.948 10 0 59587 31500.00000 0 -14377332.174 2750195.698 20855055.820 10 0 59587 32400.00000 0 -12683336.581 699485.670 22094583.019 10 0 59587 33300.00000 0 -11081122.407 -1578498.514 22903909.217 10 0 59587 34200.00000 0 -9621798.897 -4033747.867 23267641.634 10 0 59587 35100.00000 0 -8347115.186 -6607537.103 23179084.610 10 0 59587 36000.00000 0 -7287831.741 -9234660.959 22640340.589 10 0 59587 36900.00000 0 -6462574.697 -11845943.896 21662239.886 10 0 59587 37800.00000 0 -5877217.845 -14370918.411 20264102.846 10 0 59587 38700.00000 0 -5524814.667 -16740560.920 18473340.965 10 0 59587 39600.00000 0 -5386079.873 -18889972.465 16324906.314 10 0 59587 40500.00000 0 -5430397.204 -20760894.588 13860601.095 10 0 59587 41400.00000 0 -5617308.751 -22303957.992 11128261.286 10 0 59587 42300.00000 0 -5898421.620 -23480572.968 8180830.425 10 0 59587 43200.00000 0 -6219650.954 -24264385.598 5075341.105 10 0 59587 44100.00000 0 -6523704.993 -24642241.600 1871823.135 10 0 59587 45000.00000 0 -6752708.279 -24614619.767 -1367841.472 10 0 59587 45900.00000 0 -6850853.791 -24195518.599 -4581095.957 10 0 59587 46800.00000 0 -6766973.805 -23411801.785 -7705897.453 10 0 59587 47700.00000 0 -6456922.727 -22302030.102 -10681895.442 10 0 59587 48600.00000 0 -5885672.801 -20914828.047 -13451578.922 10 0 59587 49500.00000 0 -5029035.211 -19306852.211 -15961371.790 10 0 59587 50400.00000 0 -3874934.211 -17540444.640 -18162656.617 10 0 59587 51300.00000 0 -2424179.866 -15681067.175 -20012708.310 10 0 59587 52200.00000 0 -690705.202 -13794621.773 -21475520.472 10 0 59587 53100.00000 0 1298744.772 -11944766.793 -22522508.834 10 0 59587 54000.00000 0 3505462.460 -10190339.631 -23133078.125 10 0 59587 54900.00000 0 5880133.791 -8582992.276 -23295040.745 10 0 59587 55800.00000 0 8364648.212 -7165138.157 -23004877.905 10 0 59587 56700.00000 0 10894290.781 -5968296.391 -22267836.479 10 0 59587 57600.00000 0 13400228.098 -5011903.628 -21097857.543 10 0 59587 58500.00000 0 15812186.683 -4302644.805 -19517335.552 10 0 59587 59400.00000 0 18061213.443 -3834332.649 -17556710.384 10 0 59587 60300.00000 0 20082403.280 -3588342.851 -15253897.757 10 0 59587 61200.00000 0 21817478.986 -3534588.288 -12653567.148 10 0 59587 62100.00000 0 23217113.883 -3632992.323 -9806279.822 10 0 59587 63000.00000 0 24242897.620 -3835399.395 -6767503.004 10 0 59587 63900.00000 0 24868860.066 -4087841.652 -3596519.575 10 0 59587 64800.00000 0 25082486.899 -4333064.295 -355255.432 10 0 59587 65700.00000 0 24885182.200 -4513200.412 2892950.939 10 0 59587 66600.00000 0 24292157.364 -4572479.074 6084610.350 10 0 59587 67500.00000 0 23331750.778 -4459848.656 9157348.998 10 0 59587 68400.00000 0 22044207.640 -4131400.939 12051151.341 10 0 59587 69300.00000 0 20479973.004 -3552490.365 14709552.816 10 0 59587 70200.00000 0 18697572.267 -2699456.379 17080757.034 10 0 59587 71100.00000 0 16761170.995 -1560874.461 19118654.122 10 0 59587 72000.00000 0 14737919.468 -138282.340 20783719.512 10 0 59587 72900.00000 0 12695195.819 1553649.056 22043775.707 10 0 59587 73800.00000 0 10697865.092 3487506.343 22874603.003 10 0 59587 74700.00000 0 8805669.917 5624068.277 23260388.653 10 0 59587 75600.00000 0 7070861.701 7913743.535 23194007.736 10 0 59587 76500.00000 0 5536170.047 10298450.035 22677132.500 10 0 59587 77400.00000 0 4233193.060 12713856.010 21720170.382 10 0 59587 78300.00000 0 3181272.705 15091888.657 20342034.200 10 0 59587 79200.00000 0 2386898.712 17363405.761 18569750.921 10 0 59587 80100.00000 0 1843662.307 19460919.534 16437918.258 10 0 59587 81000.00000 0 1532758.185 21321260.561 13988020.759 10 0 59587 81900.00000 0 1424010.630 22888072.765 11267619.301 10 0 59587 82800.00000 0 1477378.413 24114037.642 8329429.875 10 0 59587 83700.00000 0 1644873.741 24962737.542 5230309.214 10 0 59587 84600.00000 0 1872813.903 25410082.708 2030166.130 10 0 59587 85500.00000 0 2104311.105 25445244.646 -1209181.330 10 0 59588 0.00000 0 2281896.445 25071058.663 -4425181.895 10 0 59588 900.00000 0 2350168.911 24303879.534 -7555740.793 10 0 59588 1800.00000 0 2258359.125 23172897.307 -10540397.406 10 0 59588 2700.00000 0 1962701.577 21718940.752 -13321475.626 10 0 59588 3600.00000 0 1428516.288 19992817.761 -15845181.942 10 0 59588 4500.00000 0 631912.944 18053260.168 -18062633.203 10 0 59588 5400.00000 0 -438954.506 15964556.680 -19930795.143 10 0 59588 6300.00000 0 -1783136.638 13793970.319 -21413314.422 10 0 59588 7200.00000 0 -3386674.303 11609045.815 -22481228.461 10 0 59588 8100.00000 0 -5222933.183 9474917.174 -23113539.317 10 0 59588 9000.00000 0 -7253476.642 7451726.042 -23297639.861 10 0 59588 9900.00000 0 -9429444.094 5592257.638 -23029582.809 10 0 59588 10800.00000 0 -11693381.131 3939892.573 -22314185.726 10 0 59588 11700.00000 0 -13981448.411 2526960.516 -21164967.822 10 0 59588 12600.00000 0 -16225919.815 1373565.594 -19603917.410 10 0 59588 13500.00000 0 -18357867.411 486934.197 -17661092.020 10 0 59588 14400.00000 0 -20309921.812 -138685.802 -15374056.569 10 0 59588 15300.00000 0 -22018992.128 -521568.529 -12787168.526 10 0 59588 16200.00000 0 -23428830.280 -691514.224 -9950722.478 10 0 59588 17100.00000 0 -24492330.079 -688355.361 -6919969.981 10 0 59588 18000.00000 0 -25173461.855 -560027.948 -3754033.893 10 0 59588 18900.00000 0 -25448758.644 -360290.645 -514739.232 10 0 59588 19800.00000 0 -25308288.903 -146190.137 2734615.059 10 0 59588 20700.00000 0 -24756072.896 24617.197 5930517.109 10 0 59588 21600.00000 0 -23809924.204 96570.695 9010508.689 10 0 59588 22500.00000 0 -22500722.976 18819.902 11914429.911 10 0 59588 23400.00000 0 -20871152.499 -252365.770 14585615.065 10 0 59588 24300.00000 0 -18973954.018 -751496.917 16972014.106 10 0 59588 25200.00000 0 -16869775.583 -1502164.385 19027216.385 10 0 59588 26100.00000 0 -14624707.890 -2515812.789 20711355.733 10 0 59588 27000.00000 0 -12307613.003 -3791039.246 21991879.302 10 0 59588 27900.00000 0 -9987359.826 -5313446.364 22844165.943 10 0 59588 28800.00000 0 -7730083.290 -7056054.389 23251983.454 10 0 59588 29700.00000 0 -5596582.058 -8980253.683 23207777.766 10 0 59588 30600.00000 0 -3639962.527 -11037255.960 22712790.676 10 0 59588 31500.00000 0 -1903625.746 -13169981.974 21777006.176 10 0 59588 32400.00000 0 -419678.414 -15315305.675 20418928.693 10 0 59588 33300.00000 0 792169.072 -17406560.576 18665199.546 10 0 59588 34200.00000 0 1725175.214 -19376203.777 16550060.711 10 0 59588 35100.00000 0 2385590.513 -21158527.326 14114677.475 10 0 59588 36000.00000 0 2792133.587 -22692305.204 11406333.764 10 0 59588 36900.00000 0 2974945.157 -23923267.328 8477515.975 10 0 59588 37800.00000 0 2974065.952 -24806299.523 5384902.761 10 0 59588 38700.00000 0 2837503.765 -25307279.869 2188279.579 10 0 59588 39600.00000 0 2618971.332 -25404476.776 -1050601.945 10 0 59588 40500.00000 0 2375389.840 -25089452.147 -4269199.152 10 0 59588 41400.00000 0 2164262.204 -24367433.057 -7405366.801 10 0 59588 42300.00000 0 2041025.304 -23257136.899 -10398537.411 10 0 59588 43200.00000 0 2056491.217 -21790057.070 -13190872.428 10 0 59588 44100.00000 0 2254483.819 -20009238.033 -15728363.577 10 0 59588 45000.00000 0 2669769.281 -17967589.237 -17961864.528 10 0 59588 45900.00000 0 3326367.245 -15725806.079 -19848034.227 10 0 59588 46800.00000 0 4236314.165 -13349982.068 -21350174.524 10 0 59588 47700.00000 0 5398932.145 -10909009.134 -22438946.339 10 0 59588 48600.00000 0 6800636.224 -8471871.921 -23092950.493 10 0 59588 49500.00000 0 8415291.173 -6104946.614 -23299161.365 10 0 59588 50400.00000 0 10205106.347 -3869415.373 -23053203.813 10 0 59588 51300.00000 0 12122034.855 -1818903.210 -22359466.326 10 0 59588 52200.00000 0 14109622.096 2564.266 -21231046.123 10 0 59588 53100.00000 0 16105229.419 1562196.344 -19689524.866 10 0 59588 54000.00000 0 18042542.182 2839596.450 -17764576.852 10 0 59588 54900.00000 0 19854258.617 3827395.128 -15493414.913 10 0 59588 55800.00000 0 21474846.969 4531328.517 -12920082.785 10 0 59588 56700.00000 0 22843254.511 4969757.703 -10094606.205 10 0 59588 57600.00000 0 23905452.844 5172648.220 -7072018.434 10 0 59588 58500.00000 0 24616709.990 5180052.520 -3911279.295 10 0 59588 59400.00000 0 24943490.844 5040160.145 -674109.586 10 0 59588 60300.00000 0 24864903.123 4806999.610 2576234.816 10 0 59588 61200.00000 0 24373625.425 4537891.579 5776222.950 10 0 59588 62100.00000 0 23476276.577 4290764.172 8863315.684 10 0 59588 63000.00000 0 22193209.856 4121447.428 11777212.126 10 0 59588 63900.00000 0 20557740.931 4081064.767 14461048.472 10 0 59588 64800.00000 0 18614843.130 4213634.882 16862523.757 10 0 59588 65700.00000 0 16419366.706 4553987.807 18934928.913 10 0 59588 66600.00000 0 14033859.220 5126084.748 20638058.156 10 0 59588 67500.00000 0 11526080.851 5941813.181 21938984.887 10 0 59588 68400.00000 0 8966320.746 7000307.715 22812687.726 10 0 59588 69300.00000 0 6424628.284 8287824.251 23242515.823 10 0 59588 70200.00000 0 3968075.536 9778171.146 23220486.347 10 0 59588 71100.00000 0 1658164.795 11433677.464 22747410.589 10 0 59588 72000.00000 0 -451511.992 13206655.871 21832848.572 10 0 59588 72900.00000 0 -2317266.668 15041297.391 20494895.361 10 0 59588 73800.00000 0 -3906881.235 16875917.716 18759805.210 10 0 59588 74700.00000 0 -5200685.331 18645460.653 16661462.551 10 0 59588 75600.00000 0 -6192103.733 20284154.362 14240711.255 10 0 59588 76500.00000 0 -6887654.745 21728210.284 11544555.873 10 0 59588 77400.00000 0 -7306402.817 22918453.393 8625250.566 10 0 59588 78300.00000 0 -7478891.041 23802775.686 5539293.091 10 0 59588 79200.00000 0 -7445600.208 24338312.402 2346342.618 10 0 59588 80100.00000 0 -7255000.074 24493251.923 -891918.663 10 0 59588 81000.00000 0 -6961274.962 24248205.444 -4112959.440 10 0 59588 81900.00000 0 -6621818.745 23597080.382 -7254587.566 10 0 59588 82800.00000 0 -6294603.462 22547421.640 -10256131.283 10 0 59588 83700.00000 0 -6035530.886 21120206.412 -13059592.276 10 0 59588 84600.00000 0 -5895876.965 19349100.183 -15610749.959 10 0 59588 85500.00000 0 -5919935.404 17279203.494 -17860197.013 10 0 59589 0.00000 0 -6142958.639 14965339.721 -19764287.327 10 0 59589 900.00000 0 -6589482.814 12469951.341 -21285979.892 10 0 59589 1800.00000 0 -7272107.474 9860692.675 -22395560.249 10 0 59589 2700.00000 0 -8190783.147 7207812.328 -23071228.992 10 0 59589 3600.00000 0 -9332638.844 4581434.793 -23299542.696 10 0 59589 4500.00000 0 -10672359.780 2048851.116 -23075698.687 10 0 59589 5400.00000 0 -12173102.876 -328069.803 -22403656.316 10 0 59589 6300.00000 0 -13787915.224 -2495242.139 -21296090.303 10 0 59589 7200.00000 0 -15461599.261 -4408397.668 -19774174.697 10 0 59589 8100.00000 0 -17132949.161 -6034708.210 -17867199.151 10 0 59589 9000.00000 0 -18737266.511 -7353926.879 -15612022.585 10 0 59589 9900.00000 0 -20209050.379 -8358998.702 -13052372.815 10 0 59589 10800.00000 0 -21484748.485 -9056113.513 -10238004.250 10 0 59589 11700.00000 0 -22505452.411 -9464197.681 -7223729.176 10 0 59589 12600.00000 0 -23219421.128 -9613865.425 -4068341.536 10 0 59589 13500.00000 0 -23584323.726 -9545874.170 -833454.961 10 0 59589 14400.00000 0 -23569103.803 -9309150.258 2417720.757 10 0 59589 15300.00000 0 -23155383.981 -8958470.413 5621638.613 10 0 59589 16200.00000 0 -22338349.009 -8551899.769 8715681.612 10 0 59589 17100.00000 0 -21127068.638 -8148098.072 11639410.821 10 0 59589 18000.00000 0 -19544246.092 -7803611.371 14335767.178 10 0 59589 18900.00000 0 -17625403.074 -7570266.991 16752201.387 10 0 59589 19800.00000 0 -15417536.816 -7492784.563 18841708.253 10 0 59589 20700.00000 0 -12977307.456 -7606705.949 20563744.264 10 0 59589 21600.00000 0 -10368833.913 -7936732.392 21885010.518 10 0 59589 22500.00000 0 -7661192.634 -8495539.019 22780086.380 10 0 59589 23400.00000 0 -4925725.591 -9283115.748 23231902.862 10 0 59589 24300.00000 0 -2233270.936 -10286660.774 23232048.455 10 0 59589 25200.00000 0 348568.050 -11481029.144 22780903.634 10 0 59589 26100.00000 0 2758002.679 -12829715.452 21887603.826 10 0 59589 27000.00000 0 4941381.621 -14286327.465 20569833.817 10 0 59589 27900.00000 0 6855162.705 -15796487.366 18853459.629 10 0 59589 28800.00000 0 8467454.808 -17300079.925 16772006.742 10 0 59589 29700.00000 0 9759069.324 -18733753.130 14365995.968 10 0 59589 30600.00000 0 10724041.125 -20033566.972 11682150.586 10 0 59589 31500.00000 0 11369600.734 -21137680.437 8772490.378 10 0 59589 32400.00000 0 11715601.991 -21988965.706 5693329.847 10 0 59589 33300.00000 0 11793431.557 -22537441.920 2504199.326 10 0 59589 34200.00000 0 11644447.463 -22742428.440 -733291.098 10 0 59589 35100.00000 0 11318012.961 -22574329.203 -3956624.218 10 0 59589 36000.00000 0 10869208.100 -22015974.801 -7103563.747 10 0 59589 36900.00000 0 10356314.376 -21063466.943 -10113336.381 10 0 59589 37800.00000 0 9838176.908 -19726490.045 -12927786.720 10 0 59589 38700.00000 0 9371553.505 -18028076.260 -15492484.433 10 0 59589 39600.00000 0 9008560.553 -16003832.340 -17757763.618 10 0 59589 40500.00000 0 8794321.877 -13700658.444 -19679675.631 10 0 59589 41400.00000 0 8764918.647 -11175009.632 -21220837.852 10 0 59589 42300.00000 0 8945726.474 -8490769.477 -22351162.434 10 0 59589 43200.00000 0 9350210.307 -5716821.178 -23048450.990 10 0 59589 44100.00000 0 9979229.375 -2924414.247 -23298843.142 10 0 59589 45000.00000 0 10820883.678 -184433.807 -23097109.139 10 0 59589 45900.00000 0 11850911.437 2435315.870 -22446779.269 10 0 59589 46800.00000 0 13033624.007 4872701.738 -21360105.468 10 0 59589 47700.00000 0 14323342.231 7073618.683 -19857853.538 10 0 59589 48600.00000 0 15666276.744 8994013.870 -17968927.521 10 0 59589 49500.00000 0 17002775.407 10601493.201 -15729831.109 10 0 59589 50400.00000 0 18269844.609 11876441.069 -13183974.524 10 0 59589 51300.00000 0 19403838.522 12812604.917 -10380838.800 10 0 59589 52200.00000 0 20343202.168 13417118.556 -7375012.816 10 0 59589 53100.00000 0 21031150.761 13709962.207 -4225121.877 10 0 59589 54000.00000 0 21418169.704 13722881.719 -992669.416 10 0 59589 54900.00000 0 21464226.669 13497813.107 2259184.079 10 0 59589 55800.00000 0 21140599.245 13084880.392 5466878.847 10 0 59589 56700.00000 0 20431238.231 12540053.656 8567723.277 10 0 59589 57600.00000 0 19333606.831 11922569.282 11501143.510 10 0 59589 58500.00000 0 17858959.044 11292224.713 14209888.116 10 0 59589 59400.00000 0 16032045.191 10706665.369 16641162.103 10 0 59589 60300.00000 0 13890257.465 10218781.281 18747666.476 10 0 59589 61200.00000 0 11482252.775 9874325.602 20488522.028 10 0 59589 62100.00000 0 8866112.476 9709856.836 21830059.249 10 0 59589 63000.00000 0 6107117.974 9751091.883 22746459.603 10 0 59589 63900.00000 0 3275237.144 10011738.634 23220236.960 10 0 59589 64800.00000 0 442427.766 10492855.773 23242551.715 10 0 59589 65700.00000 0 -2320129.006 11182764.646 22813353.694 10 0 59589 66600.00000 0 -4944750.129 12057514.503 21941353.425 10 0 59589 67500.00000 0 -7369815.109 13081879.171 20643824.636 10 0 59589 68400.00000 0 -9542068.837 14210841.226 18946243.883 10 0 59589 69300.00000 0 -11418569.787 15391499.772 16881776.025 10 0 59589 70200.00000 0 -12968205.875 16565320.826 14490616.780 10 0 59589 71100.00000 0 -14172718.490 17670635.742 11819205.835 10 0 59589 72000.00000 0 -15027195.477 18645283.293 8919326.053 10 0 59589 72900.00000 0 -15540015.808 19429285.712 5847106.000 10 0 59589 73800.00000 0 -15732250.932 19967447.954 2661944.394 10 0 59589 74700.00000 0 -15636549.796 20211772.852 -574623.621 10 0 59589 75600.00000 0 -15295555.426 20123592.629 -3800097.796 10 0 59589 76500.00000 0 -14759919.743 19675328.822 -6952200.566 10 0 59589 77400.00000 0 -14085999.466 18851807.868 -9970059.884 10 0 59589 78300.00000 0 -13333328.773 17651077.592 -12795365.972 10 0 59589 79200.00000 0 -12561973.348 16084689.987 -15373481.288 10 0 59589 80100.00000 0 -11829875.330 14177437.278 -17654483.674 10 0 59589 81000.00000 0 -11190299.080 11966550.293 -19594123.853 10 0 59589 81900.00000 0 -10689483.847 9500389.907 -21154679.703 10 0 59589 82800.00000 0 -10364601.212 6836683.057 -22305691.264 10 0 59589 83700.00000 0 -10242103.157 4040373.415 -23024562.302 10 0 59589 84600.00000 0 -10336530.917 1181172.784 -23297016.287 10 0 59589 85500.00000 0 -10649836.305 -1669087.808 -23117396.829 99